Find Local Weather

World > North America > United States > New York

Haines Falls, New York Regional Weather

Lat: 42.20N, Lon: 74.1W
Wx Zone: NYZ058
Feedback
Expires:201810221100;;560732
ASUS41 KALY 221010
RWRALY

NEW YORK STATE HOURLY WEATHER ROUNDUP
NATIONAL WEATHER SERVICE ALBANY NY
600 AM EDT MON OCT 22 2018

NOTE: "FAIR" INDICATES FEW OR NO CLOUDS BELOW 12,000 FEET WITH NO
SIGNIFICANT WEATHER AND/OR NO OBSTRUCTIONS TO VISIBILITY.


NYZ032-033-038>043-046>054-057>066-NYZ062>081-082-084-221100-
EAST

  
CITY           SKY/WX    TMP DP  RH WIND       PRES   REMARKS
ALBANY         CLOUDY    38  30  73 SW3       30.17R                  
GLENS FALLS    CLOUDY    28  27  96 CALM      30.14R                  
POUGHKEEPSIE   FAIR      36  27  69 SW9       30.17S WCI  29          
NEWBURGH       MOCLDY    34  30  86 W7        30.19R WCI  28          
MONTGOMERY     FAIR      33  29  85 SW3       30.18R                  
WHITE PLAINS   FAIR      34  27  75 CALM      30.19R                  
ISLIP          FAIR      34  28  79 W7        30.21R WCI  28          
NEW YORK CITY  FAIR      45  27  49 W13       30.21S                  
CENTRAL PARK   FAIR      39  29  67 MISG      30.24R                  
$$


SKY/WX - Weather  TMP - Temperature  DP - Dew Point  RH - Relative Humidity
WIND - Wind Direction/Speed PRES - Barometric Pressure